Location: Newark
(53.3269°N, 6.3133°W)
Time: 03:53:55
(UTC+00:00)

Envisat - Visible Passes

Search period start: 21 January 2020 00:00
Search period end: 31 January 2020 00:00
Orbit: 764 x 766 km, 98.1° (Epoch: 20 January)

Date Brightness Start Highest point End Pass type
(mag) Time Alt. Az. Time Alt. Az. Time Alt. Az.
21 Jan 3.8 06:59:39 10° NNE 07:04:40 55° E 07:09:39 10° S visible
21 Jan 3.5 18:20:32 10° S 18:25:34 64° WSW 18:30:39 10° NNW visible
21 Jan 6.3 20:04:16 10° W 20:05:39 11° W 20:07:02 10° WNW visible
22 Jan 5.1 06:23:13 10° NNE 06:27:38 29° E 06:32:02 10° SSE visible
22 Jan 3.0 17:43:44 10° SSE 17:48:46 69° ENE 17:53:51 10° N visible
22 Jan 5.5 19:24:26 10° SW 19:28:18 22° W 19:32:12 10° NW visible
23 Jan 6.1 05:47:24 10° NE 05:50:25 16° E 05:53:24 10° ESE visible
23 Jan 3.1 07:25:05 10° NNE 07:30:13 86° ESE 07:35:19 10° SSW visible
23 Jan 4.4 18:46:25 10° SSW 18:51:11 40° W 18:55:59 10° NNW visible
24 Jan 4.2 06:48:25 10° NNE 06:53:20 45° E 06:58:12 10° S visible
24 Jan 3.2 18:09:10 10° S 18:14:15 77° WSW 18:19:23 10° NNW visible
24 Jan 6.1 19:51:38 10° WSW 19:54:09 14° W 19:56:42 10° NW visible
25 Jan 5.4 06:12:07 10° NE 06:16:14 24° E 06:20:20 10° SE visible
25 Jan 3.1 17:32:32 10° SE 17:37:30 57° ENE 17:42:30 10° N visible
25 Jan 5.3 19:12:40 10° SSW 19:16:53 26° W 19:21:08 10° NW visible
26 Jan 6.2 05:36:44 10° ENE 05:38:56 13° E 05:41:08 10° ESE visible
26 Jan 3.3 07:13:48 10° NNE 07:18:55 72° ESE 07:23:59 10° S visible
26 Jan 4.0 18:34:54 10° S 18:39:49 49° W 18:44:46 10° NNW visible
27 Jan 4.6 06:37:13 10° NNE 06:41:58 38° E 06:46:40 10° SSE visible
27 Jan 3.0 17:57:51 10° SSE 18:02:57 88° ENE 18:08:04 10° NNW visible
27 Jan 5.9 19:39:29 10° SW 19:42:42 17° W 19:45:55 10° NW visible
28 Jan 5.7 06:01:04 10° NE 06:04:49 20° E 06:08:32 10° SE visible
28 Jan 5.0 19:01:00 10° SSW 19:05:29 31° W 19:10:01 10° NNW visible
29 Jan 6.5 05:27:00 10° ENE 05:27:27 10° E 05:27:55 10° E visible
29 Jan 3.7 07:02:32 10° NNE 07:07:35 59° E 07:12:36 10° S visible
29 Jan 3.7 18:23:28 10° S 18:28:29 59° W 18:33:31 10° NNW visible
29 Jan 6.5 20:08:18 10° W 20:08:37 10° W 20:08:56 10° WNW visible
30 Jan 5.0 06:26:03 10° NNE 06:30:35 31° E 06:35:05 10° SSE visible
30 Jan 3.0 17:46:36 10° SSE 17:51:40 74° ENE 17:56:45 10° NNW visible
30 Jan 5.7 19:27:33 10° SW 19:31:15 20° W 19:35:00 10° NW visible
